Flag for Germany Weather past 2 weeks in Sankt Ingbert, Saarland, Germany

Now
66 °F

Passing clouds.


Feels Like: 66 °F
Forecast: 61 / 85 °F
Wind: 1 mph from East

Location: Saarbruecken / Ensheim

Current Time: Aug 30, 2015 at 4:30:10 AM

Latest Report: Aug 30, 2015 at 4:00 AM


Visibility: 19 mi

Pressure: 30.07 "Hg

Humidity: 95%

Dew point: 64 °F

Location of Sankt IngbertLocation

Historic Weather in Sankt Ingbert — Graph

°F

Sankt Ingbert temperature yesterday

Maximum temperature yesterday: 86 °F (at 5:00 PM)
Minimum temperature yesterday: 61 °F (at 1:00 AM)
Average temperature yesterday: 73 °F

Past Weeks' High & Low Weather Summary

 TemperatureHumidityPressure
High86 °F (Aug 29, 5:00 PM)99% (Aug 19, 6:00 AM)30.26 "Hg (Aug 19, 6:00 AM)
Low46 °F (Aug 19, 7:00 AM)30% (Aug 22, 6:00 PM)29.66 "Hg (Aug 24, 11:00 AM)
Average64 °F74%29.99 "Hg
* Reported Aug 15 3:00 AM — Aug 30 3:00 AM, Sankt Ingbert, Weather by CustomWeather, © 2015

Note: Actual official high and low records may vary slightly from our data, if they occured in-between our weather recording intervals... More about our weather records

Advertising

Sankt Ingbert weather history for previous 24 hours

 ConditionsComfort  
Time TempWeatherWind HumidityBarometerVisibility
3:00 AM
Sun, Aug 30
68 °FPassing clouds.1 mph92%30.07 "Hg19 mi
2:00 AM70 °FPassing clouds.3 mph85%30.06 "Hg22 mi
1:00 AM70 °FPassing clouds.3 mph87%30.07 "Hg22 mi
11:00 PM
Sat, Aug 29
72 °FPassing clouds.2 mph84%30.08 "Hg28 mi
10:00 PM74 °FPassing clouds.3 mph80%30.07 "Hg25 mi
9:00 PM75 °FPassing clouds.3 mph71%30.06 "Hg31 mi
8:00 PM81 °FPartly sunny.2 mph59%30.04 "Hg37 mi
7:00 PM84 °FPassing clouds.2 mph51%30.04 "Hg37 mi
6:00 PM85 °FPassing clouds.1 mph44%30.05 "Hg37 mi
5:00 PM86 °FPassing clouds.2 mph45%30.06 "Hg34 mi
4:00 PM85 °FPassing clouds.2 mph50%30.07 "Hg31 mi
3:00 PM84 °FScattered clouds.3 mph52%30.10 "Hg28 mi
2:00 PM83 °FScattered clouds.2 mph59%30.11 "Hg25 mi
1:00 PM80 °FPassing clouds.2 mph65%30.14 "Hg19 mi
12:00 PM78 °FScattered clouds.3 mph72%30.15 "Hg16 mi
11:00 AM72 °FScattered clouds.3 mph79%30.16 "Hg12 mi
10:00 AM69 °FScattered clouds.3 mph86%30.17 "Hg5 mi
9:00 AM64 °FFog.3 mph98%30.17 "Hg1 mi
8:00 AM62 °FFog.3 mph99%30.18 "Hg1 mi
7:00 AM62 °FFog.2 mph99%30.17 "Hg1 mi
6:00 AM62 °FFog.3 mph99%30.16 "Hg1 mi
5:00 AM62 °FFog.3 mph99%30.16 "Hg1 mi
4:00 AM62 °FFog.2 mph99%30.17 "Hg4 mi
Weather by CustomWeather, © 2015

See weather overviewHow to use our weather pages